רגע לפני שאתם עוזבים...
יש לנו ב
הצעה מיוחד עבורכם!
מספר שירותים שכדאי שתכירו
| לוחית | שעת חיפוש | ||||
| 68197803 | קיה קוריאה הדרומית | SELTOS | 2024 | 03/09/2026 | 12:11:32 |
| 22790701 | סוזוקי הונגריה | VITARA | 2017 | 03/09/2026 | 12:11:31 |
| 28396801 | סיטרואן ספרד | C4 PICASSO | 2018 | 03/09/2026 | 12:11:30 |
| 43498104 | טויוטה יפן | RAV4 HYBRID | 2025 | 03/09/2026 | 12:11:25 |
| 7293487 | וולבו בלגיה | - | 2017 | 03/09/2026 | 12:11:23 |
| 3400011 | מיצובישי יפן | OUTLANDER | 2014 | 03/09/2026 | 12:11:23 |
| 2597532 | שברולט קוריאה הדרומית | SPARK | 2014 | 03/09/2026 | 12:11:20 |
| 39420002 | יונדאי קוריאה הדרומית | SONATA HYBRID | 2021 | 03/09/2026 | 12:11:17 |
| 36774404 | איי אם סין | IM5 | 2026 | 03/09/2026 | 12:11:14 |
| 82543203 | טויוטה ספרד | TOYOTA CITY | 2024 | 03/09/2026 | 12:11:09 |
| 1025968 | סוזוקי יפן | SX4 | 2008 | 03/09/2026 | 12:11:07 |
| 82543203 | טויוטה ספרד | TOYOTA CITY | 2024 | 03/09/2026 | 12:11:06 |
| 3308939 | שברולט קוריאה הדרומית | SPARK | 2016 | 03/09/2026 | 12:11:05 |
| 87693001 | מרצדס גרמניה | S560E | 2020 | 03/09/2026 | 12:11:04 |
| 2112080 | איסוזו יפן | - | 2016 | 03/09/2026 | 12:11:03 |
| 78583701 | וולבו שבדיה | - | 2020 | 03/09/2026 | 12:11:02 |
| 16699901 | מיצובישי תאילנד | SPACE STAR | 2018 | 03/09/2026 | 12:11:01 |
| 25868004 | לוטוס בריטניה | EMIRA | 2025 | 03/09/2026 | 12:11:01 |
| 1139751 | סיטרואן ספרד | BERLINGO | 2003 | 03/09/2026 | 12:11:00 |
| 1227476 | מזדה יפן | CX-5 | 2013 | 03/09/2026 | 12:10:57 |
| 2259671 | סיטרואן צרפת | C5 | 2010 | 03/09/2026 | 12:10:54 |
| 56690102 | סיאט ספרד | ARONA | 2021 | 03/09/2026 | 12:10:54 |
| 26176001 | סיאט ספרד | IBIZA | 2017 | 03/09/2026 | 12:10:52 |
| 7954452 | הונדה טורקיה | CIVIC | 2013 | 03/09/2026 | 12:10:48 |
| 9125374 | מרצדס גרמניה | S350 | 2012 | 03/09/2026 | 12:10:47 |
| 2936237 | טויוטה טורקיה | COROLLA | 2016 | 03/09/2026 | 12:10:46 |
| 7954452 | הונדה טורקיה | CIVIC | 2013 | 03/09/2026 | 12:10:45 |
| 6001369 | יונדאי צ'כיה | I30 | 2009 | 03/09/2026 | 12:10:42 |
| 8120465 | פורד ספרד | FOCUS | 2008 | 03/09/2026 | 12:10:39 |
| 6001369 | יונדאי צ'כיה | I30 | 2009 | 03/09/2026 | 12:10:39 |
| 20597201 | רנו טורקיה | CLIO | 2018 | 03/09/2026 | 12:10:39 |
| 1289138 | סוזוקי הונגריה | VITARA | 2016 | 03/09/2026 | 12:10:38 |
| 1252831 | סוזוקי-יפן | - | 2017 | 03/09/2026 | 12:10:27 |
| 76599003 | אקספנג סין | P7I | 2024 | 03/09/2026 | 12:10:26 |
| 13660201 | קיה סלובקיה | SPORTAGE | 2018 | 03/09/2026 | 12:10:19 |
| 6279716 | ב מ וו גרמניה | 750I | 2010 | 03/09/2026 | 12:10:15 |
| 2034478 | מרוטי סוזוקי הודו | ALTO | 2011 | 03/09/2026 | 12:10:13 |
| 49906902 | מרצדס הונגריה | CLA250 E | 2021 | 03/09/2026 | 12:10:10 |
| 1073873 | יונדאי צ'כיה | I30 | 2010 | 03/09/2026 | 12:10:06 |
| 8107958 | טויוטה יפן | LAND CRISER | 2005 | 03/09/2026 | 12:10:04 |
| 8120465 | פורד ספרד | FOCUS | 2008 | 03/09/2026 | 12:10:00 |
| 84668603 | קיה קוריאה הדרומית | NIRO HEV | 2024 | 03/09/2026 | 12:09:59 |
| 15857702 | סובארו יפן | XV | 2020 | 03/09/2026 | 12:09:58 |
| 7928763 | טויוטה יפן | COROLLA | 2008 | 03/09/2026 | 12:09:57 |
| 26176001 | סיאט ספרד | IBIZA | 2017 | 03/09/2026 | 12:09:56 |
| 2017561 | מזדה יפן | MAZDA 3 | 2007 | 03/09/2026 | 12:09:55 |
| 6296464 | פיג'ו צרפת | 207 | 2008 | 03/09/2026 | 12:09:52 |
| 26176001 | סיאט ספרד | IBIZA | 2017 | 03/09/2026 | 12:09:52 |
| 60297404 | סיטרואן ספרד | BERLINGO | 2026 | 03/09/2026 | 12:09:49 |
| 6887537 | רנו טורקיה | FLUENCE | 2016 | 03/09/2026 | 12:09:49 |
| 1851038 | סקודה צ'כיה | OCTAVIA | 2016 | 03/09/2026 | 12:09:43 |
| 5161952 | טויוטה יפן | PRIUS HYBRID | 2013 | 03/09/2026 | 12:09:42 |
| 6001369 | יונדאי צ'כיה | I30 | 2009 | 03/09/2026 | 12:09:38 |
| 20597201 | רנו טורקיה | CLIO | 2018 | 03/09/2026 | 12:09:30 |
| 3480064 | אאודי הונגריה | TT | 2008 | 03/09/2026 | 12:09:28 |
| 5416026 | יונדאי קוריאה הדרומית | ELANTRA HEV | 2022 | 03/09/2026 | 12:09:19 |
| 9469916 | דייהטסו יפן | גרן מוב אוטו' 5דלת' | 1999 | 03/09/2026 | 12:09:18 |
| 9073336 | יונדאי קוריאה | ACCENT | 2003 | 03/09/2026 | 12:09:18 |
| 1017264 | שברולט קוריאה הדרומית | AVEO | 2008 | 03/09/2026 | 12:09:18 |
| 4653154 | אאודי גרמניה | Q5 | 2015 | 03/09/2026 | 12:09:09 |
| 5090963 | מזדה יפן | MAZDA3 | 2008 | 03/09/2026 | 12:09:08 |
| 2938374 | טויוטה תאילנד | HILUX | 2011 | 03/09/2026 | 12:09:08 |
| 1754930 | מזדה תאילנד | MAZDA 2 | 2016 | 03/09/2026 | 12:09:05 |
| 7648870 | פולקסווגן גרמניה | GOLF | 2010 | 03/09/2026 | 12:09:05 |
| 9506727 | טויוטה יפן | פראדו | 1999 | 03/09/2026 | 12:09:04 |
| 18411701 | רנו טורקיה | GRAND COUPE | 2017 | 03/09/2026 | 12:09:03 |
| 66866604 | זיקר סין | ZEEKR 001 | 2026 | 03/09/2026 | 12:09:03 |
| 52495003 | גולדן דרגון סי | - | 2024 | 03/09/2026 | 12:09:02 |
| 8120465 | פורד ספרד | FOCUS | 2008 | 03/09/2026 | 12:08:59 |
| 40158002 | מרצדס גרמניה | GLC300E 4MATIC | 2021 | 03/09/2026 | 12:08:58 |
| 55339004 | דאצ'יה רומניה | BIGSTER HYBRID | 2026 | 03/09/2026 | 12:08:58 |
| 2122776 | פורד תורכיה | - | 2013 | 03/09/2026 | 12:08:56 |
| 8529631 | רנו ספרד | MEGANE | 2014 | 03/09/2026 | 12:08:49 |
| 1520163 | טויוטה יפן | COROLLA | 2008 | 03/09/2026 | 12:08:42 |
| 39605703 | ב מ וו גרמניה | 530E | 2023 | 03/09/2026 | 12:08:39 |
| 9546636 | מזדה יפן | DEMIO | 2002 | 03/09/2026 | 12:08:37 |
| 2000553 | פורד גרמניה | טרנזיט משא מסחרי אחו | 1999 | 03/09/2026 | 12:08:30 |
| 1976567 | פולקסווגן גרמניה | GOLF | 2009 | 03/09/2026 | 12:08:29 |
| 1912930 | מזדה יפן | MAZDA 3 | 2016 | 03/09/2026 | 12:08:27 |
| 2060230 | מזדה יפן | MAZDA 3 | 2016 | 03/09/2026 | 12:08:26 |
| 38404704 | גילי סין | EX5 | 2025 | 03/09/2026 | 12:08:23 |
| 9412332 | שברולט ארהב" | - | 2015 | 03/09/2026 | 12:08:23 |
| 7739172 | ניסאן בריטניה | QASHQAI | 2010 | 03/09/2026 | 12:08:22 |
| 65804601 | קוואסאקי יפן | - | 2019 | 03/09/2026 | 12:08:21 |
| 8504483 | רנו צרפת | - | 1983 | 03/09/2026 | 12:08:14 |
| 3112212 | פולקסווגן ספרד | POLO | 2013 | 03/09/2026 | 12:08:13 |
| 6914226 | טויוטה טורקיה | TOYOTA C-HR | 2021 | 03/09/2026 | 12:08:12 |
| 54483003 | קיה קוריאה הדרומית | NIRO PLUS PHEV | 2023 | 03/09/2026 | 12:08:11 |
| 37097502 | ב מ וו גרמניה | 530E IPERFORMAN | 2020 | 03/09/2026 | 12:08:11 |
| 39175604 | צ'רי סין | TIGGO8PRO PHEV | 2025 | 03/09/2026 | 12:08:08 |
| 16791702 | לקסוס יפן | LEXUS RX300 | 2020 | 03/09/2026 | 12:08:06 |
| 2649111 | יונדאי צ'כיה | I30 | 2013 | 03/09/2026 | 12:08:05 |
| 3378430 | מזדה יפן | MAZDA 3 | 2017 | 03/09/2026 | 12:08:05 |
| 5118610 | שברולט ארהב" | - | 2000 | 03/09/2026 | 12:08:04 |
| 40008003 | מזדה תאילנד | MAZDA CX-3 | 2023 | 03/09/2026 | 12:08:03 |
| 16046001 | יונדאי צ'כיה | TUCSON | 2018 | 03/09/2026 | 12:08:00 |
| 13995103 | פיג'ו צרפת | 3008 | 2022 | 03/09/2026 | 12:07:56 |
| 1344275 | סיטרואן צרפת | C4 | 2011 | 03/09/2026 | 12:07:54 |
| 7598311 | ב מ וו גרמניה | 428I | 2014 | 03/09/2026 | 12:07:49 |
| 7598311 | ב מ וו גרמניה | 428I | 2014 | 03/09/2026 | 12:07:49 |
| 69350502 | מזדה יפן | MAZDA 3 | 2021 | 03/09/2026 | 12:07:48 |
| 55339004 | דאצ'יה רומניה | BIGSTER HYBRID | 2026 | 03/09/2026 | 12:07:46 |
| 2926958 | סקניה-הולנד | - | 2017 | 03/09/2026 | 12:07:41 |
| 20990401 | ניסאן מקסיקו | SENTRA | 2018 | 03/09/2026 | 12:07:40 |
| 54180804 | ב מ וו סין | - | 2026 | 03/09/2026 | 12:07:39 |
| 61435801 | קרייזלר מכסיקו | - | 2019 | 03/09/2026 | 12:07:36 |
| 6669274 | יונדאי קוריאה הדרומית | IX35 | 2011 | 03/09/2026 | 12:07:35 |
| 19623102 | ג'יפ ארהב" | GRAND CHEROKEE | 2021 | 03/09/2026 | 12:07:35 |
| 2159031 | יונדאי קוריאה הדרומית | I35 | 2014 | 03/09/2026 | 12:07:33 |
| 9576134 | לקסוס יפן | LEXUS GS300H | 2015 | 03/09/2026 | 12:07:30 |
| 1624979 | קואנג יאנג טיו | - | 2012 | 03/09/2026 | 12:07:27 |
| 27159404 | אריה-מקור הנגר | - | 2025 | 03/09/2026 | 12:07:27 |
| 38463403 | טויוטה טורקיה | COROLLA HSD SDN | 2023 | 03/09/2026 | 12:07:24 |
| 24146603 | ב מ וו גרמניה | X2 M35I | 2024 | 03/09/2026 | 12:07:24 |
| 40063702 | מרצדס גרמניה | AMG C63S | 2021 | 03/09/2026 | 12:07:23 |
| 67550703 | טויוטה טורקיה | COROLLA SDN HSD | 2024 | 03/09/2026 | 12:07:19 |
| 9130654 | פורד ספרד | KUGA | 2016 | 03/09/2026 | 12:07:14 |
| 9913856 | ביואיק ארהב" | LE SABRE | 2004 | 03/09/2026 | 12:07:13 |
| 5755575 | ב מ וו אוסטריה | MINI CS PACEMAN | 2013 | 03/09/2026 | 12:07:12 |
| 45919901 | טויוטה טורקיה | C-HR HYBRID | 2019 | 03/09/2026 | 12:07:09 |
| 37614303 | שברולט ארהב" | TRAVERSE | 2025 | 03/09/2026 | 12:07:08 |
| 1487832 | יונדאי צ'כיה | I30 | 2015 | 03/09/2026 | 12:07:04 |
| 4284879 | ניסאן הודו | MICRA | 2012 | 03/09/2026 | 12:07:00 |
| 5854869 | איסוזו תאילנד | PICK-UP | 2009 | 03/09/2026 | 12:06:57 |
| 4706326 | יונדאי קוריאה הדרומית | ELANTRA HEV | 2026 | 03/09/2026 | 12:06:54 |
| 7598311 | ב מ וו גרמניה | 428I | 2014 | 03/09/2026 | 12:06:52 |
| 1104761 | שברולט ד.קוריא | OPTRA | 2007 | 03/09/2026 | 12:06:50 |
| 7598311 | ב מ וו גרמניה | 428I | 2014 | 03/09/2026 | 12:06:47 |
| 63493602 | יונדאי טורקיה | I10 | 2022 | 03/09/2026 | 12:06:46 |
| 4221428 | פורד ארהב" | טאורוס XL4 דלתות | 1996 | 03/09/2026 | 12:06:43 |
| 5745713 | סוזוקי הונגריה | SX4 | 2012 | 03/09/2026 | 12:06:41 |
| 67550703 | טויוטה טורקיה | COROLLA SDN HSD | 2024 | 03/09/2026 | 12:06:35 |
| 26081401 | פולקסווגן גרמניה | PASSAT | 2017 | 03/09/2026 | 12:06:34 |
| 3300275 | שברולט קוריאה הדרומית | SPARK LS | 2011 | 03/09/2026 | 12:06:31 |
| 6614171 | פורד ספרד | FOCUS | 2011 | 03/09/2026 | 12:06:31 |
| 1867032 | מיצובישי תאילנד | ATTRAGE | 2015 | 03/09/2026 | 12:06:29 |
| 2533238 | פולקסווגן גרמנ | - | 2016 | 03/09/2026 | 12:06:29 |
| 83711001 | אאודי גרמניה | A3 SEDAN | 2019 | 03/09/2026 | 12:06:27 |
| 3333833 | ניסאן בריטניה | JUKE | 2016 | 03/09/2026 | 12:06:26 |
| 60355903 | פיאט פולין | ABARTH 500 | 2024 | 03/09/2026 | 12:06:26 |
| 42737003 | יונדאי קוריאה הדרומית | KONA | 2023 | 03/09/2026 | 12:06:21 |
| 4612511 | יונדאי טורקיה | I20 | 2013 | 03/09/2026 | 12:06:18 |
| 61319202 | פולקסווגן גרמניה | PASSAT | 2021 | 03/09/2026 | 12:06:14 |
| 66531304 | ג'אקו סין | JAECOO 5 HEV | 2026 | 03/09/2026 | 12:06:13 |
| 3628038 | סקודה צ'כיה | NEW SUPERB | 2016 | 03/09/2026 | 12:06:13 |
| 6553315 | שלדות | - | 2000 | 03/09/2026 | 12:06:09 |
| 6834666 | טויוטה יפן | CAMRY | 2008 | 03/09/2026 | 12:06:09 |
| 8028186 | טויוטה יפן | PRIUS | 2017 | 03/09/2026 | 12:06:04 |
| 1051064 | שברולט קוריאה הדרומית | OPTRA | 2008 | 03/09/2026 | 12:06:03 |
| 8177770 | אאודי גרמניה | A8 | 2010 | 03/09/2026 | 12:05:58 |
| 1648423 | סובארו יפן | IMPREZA | 1999 | 03/09/2026 | 12:05:58 |
| 1117738 | סוזוקי הונגריה | VITARA | 2016 | 03/09/2026 | 12:05:51 |
| 51410101 | מיצובישי תאילנד | SPACE STAR | 2018 | 03/09/2026 | 12:05:47 |
| 27885502 | יונדאי הודו | ACCENT | 2020 | 03/09/2026 | 12:05:46 |
| 6028776 | סיאט ספרד | IBIZA | 2011 | 03/09/2026 | 12:05:41 |
| 1071368 | סוזוקי יפן | SWIFT | 2009 | 03/09/2026 | 12:05:38 |
| 85337401 | ימהה צרפת | - | 2019 | 03/09/2026 | 12:05:36 |
| 6249472 | יונדאי הודו | I20 | 2010 | 03/09/2026 | 12:05:35 |
| 1351063 | הונדה יפן | ACCORD | 2006 | 03/09/2026 | 12:05:34 |
| 2957075 | שברולט ארהב" | TRAVERSE | 2011 | 03/09/2026 | 12:05:33 |
| 8722905 | גיפ-ישראל | - | 1993 | 03/09/2026 | 12:05:32 |
| 76804801 | רנו צרפת | KANGOO | 2019 | 03/09/2026 | 12:05:28 |
| 1584089 | סובארו יפן | XV | 2017 | 03/09/2026 | 12:05:27 |
| 3740169 | מזדה יפן | MAZDA 3 | 2009 | 03/09/2026 | 12:05:25 |
| 8221834 | פיג'ו סלובקיה | 208 | 2015 | 03/09/2026 | 12:05:25 |
| 5622870 | שברולט קוריאה הדרומית | OPTRA | 2010 | 03/09/2026 | 12:05:22 |
| 1144511 | יונדאי צ'כיה | I30 | 2013 | 03/09/2026 | 12:05:21 |
| 55724304 | צ'רי סין | TIGGO7 PRO PHEV | 2026 | 03/09/2026 | 12:05:20 |
| 14039202 | קואנג יאנג טיו | - | 2020 | 03/09/2026 | 12:05:17 |
| 30060602 | שברולט מקסיקו | BLAZER | 2021 | 03/09/2026 | 12:05:15 |
| 7474959 | טויוטה בריטניה | COROLLA RUNX | 2005 | 03/09/2026 | 12:05:12 |
| 1015368 | סוזוקי יפן | SWIFT | 2009 | 03/09/2026 | 12:05:11 |
| 63890604 | מיצובישי יפן | OUTLANDER | 2026 | 03/09/2026 | 12:05:10 |
| 87125703 | סאן יאנג טיואן | - | 2024 | 03/09/2026 | 12:05:08 |
| 13180103 | איווייס סין | U5 | 2022 | 03/09/2026 | 12:05:07 |
| 3356334 | יונדאי קוריאה הדרומית | I35 | 2015 | 03/09/2026 | 12:05:04 |
| 7754180 | פיאט איטליה | 500X | 2016 | 03/09/2026 | 12:05:03 |
| 4607276 | מיצובישי יפן | LANCER | 2012 | 03/09/2026 | 12:05:03 |
| 65531604 | פוטון סין | E TUNLAND | 2026 | 03/09/2026 | 12:04:56 |
| 1468558 | סקניה-הולנד | - | 2016 | 03/09/2026 | 12:04:55 |
| 57784101 | סקודה צ'כיה | KODIAQ | 2018 | 03/09/2026 | 12:04:53 |
| 7613270 | וולבו בלגיה | XC60 2.0 | 2011 | 03/09/2026 | 12:04:53 |
| 5089766 | מיצובישי פורט' | - | 2009 | 03/09/2026 | 12:04:51 |
| 60597004 | קיה קוריאה הדרומית | SPORTAGE HEV | 2026 | 03/09/2026 | 12:04:48 |
| 7352814 | סובארו יפן | B4 | 2006 | 03/09/2026 | 12:04:47 |
| 6180374 | יונדאי קוריאה הדרומית | IX35 | 2011 | 03/09/2026 | 12:04:44 |
| 1072475 | סיטרואן צרפת | C4 | 2011 | 03/09/2026 | 12:04:43 |
| 72701001 | קרייזלר ארהב" | GRAND CHEROKEE | 2019 | 03/09/2026 | 12:04:42 |
| 72608903 | ב מ וו גרמניה | M4 COMP MXDRIVE | 2024 | 03/09/2026 | 12:04:42 |
| 6095578 | שברולט קוריאה הדרומית | SONIC LT | 2012 | 03/09/2026 | 12:04:42 |
| 43315403 | פורד תורכיה | - | 2023 | 03/09/2026 | 12:04:41 |
| 1109028 | ימהה צרפת | - | 2016 | 03/09/2026 | 12:04:40 |
| 8860211 | מזדה יפן | MAZDA 3 | 2014 | 03/09/2026 | 12:04:40 |
| 1859130 | מזדה יפן | MAZDA 6 | 2016 | 03/09/2026 | 12:04:40 |
| 9447074 | מרצדס בנץ גרמנ | - | 2013 | 03/09/2026 | 12:04:39 |
| 22436402 | טויוטה טורקיה | COROLLA HSD SDN | 2020 | 03/09/2026 | 12:04:38 |
| 43316403 | פורד רומניה | PUMA | 2023 | 03/09/2026 | 12:04:38 |
| 5801030 | טויוטה טורקיה | COROLLA | 2014 | 03/09/2026 | 12:04:38 |
| 2631984 | ניסאן הודו | MICRA | 2017 | 03/09/2026 | 12:04:37 |
| 1771818 | סאאב שודיה | - | 1995 | 03/09/2026 | 12:04:36 |